Location: Carbonear
(47.7333°N, 53.2500°W)
Time: 02:41:23
(UTC+00:00)

X-37B - Visible Passes

Search period start: 19 August 2022 00:00
Search period end: 29 August 2022 00:00
Orbit: 328 x 343 km, 45.0° (Epoch: 12 August)

Date Brightness Start Highest point End Pass type
(mag) Time Alt. Az. Time Alt. Az. Time Alt. Az.
20 Aug 2.8 23:58:15 10° S 23:58:27 11° S 23:58:27 11° S visible
22 Aug 2.3 00:17:42 10° SW 00:18:44 17° SSW 00:18:44 17° SSW visible
23 Aug 2.5 00:37:44 10° WSW 00:38:43 19° SW 00:38:43 19° SW visible
23 Aug 1.5 23:23:09 10° SW 23:25:34 25° SSE 23:27:15 15° ESE visible
24 Aug 3.1 00:58:00 10° WSW 00:58:29 14° WSW 00:58:29 14° WSW visible
24 Aug 0.9 23:43:11 10° WSW 23:45:51 39° S 23:46:52 27° ESE visible
26 Aug 0.5 00:03:26 10° WSW 00:06:11 48° S 00:06:22 47° SSE visible
27 Aug 1.5 00:23:49 10° W 00:25:48 34° SW 00:25:48 34° SW visible
27 Aug 0.7 23:08:53 10° WSW 23:11:37 47° S 23:13:58 13° ESE visible
28 Aug 2.8 00:44:16 10° W 00:45:11 17° WSW 00:45:11 17° WSW visible
28 Aug 0.8 23:29:15 10° W 23:31:58 44° S 23:33:20 24° SE visible
